[[{"header":{"parameterUnit":"m.s-1","parameterCategory":1,"la1":30.2991,"la2":30.254,"lo1":-89.0895,"lo2":-89.0444,"dy":0.0017,"dx":0.0017,"nx":28,"ny":28,"refTime":"2024-08-10T03:00:00:Z","depth":0,"parameterNumber":2,"parameterNumberName":"U-component_of_WINDS"},"data":[0,0,0,0,0,0,0,0,0,0,0,0,0,0,0,0,0,0,0,0,0,0,0,0,0,0,0,0,0,0,0,0,0,0,0,0,0,0,0,0,0,0,0,0,0,0,0,0,0,0,0,0,0,0,0,0,0,0,-1.7004,-1.7003,0,-1.698,-1.698,-1.698,-1.6912,-1.691,-1.6909,-1.6908,-1.6886,-1.6886,-1.6887,0,0,0,0,0,0,0,0,0,0,0,0,0,-1.6991,-1.6992,-1.7004,-1.7003,-1.7003,-1.698,-1.698,-1.698,-1.6912,-1.691,-1.6909,-1.6907,-1.6885,-1.6886,-1.6887,0,0,0,0,0,0,0,0,0,0,0,0,0,-1.6985,-1.6992,-1.7004,-1.6967,-1.6963,-1.6981,-1.698,-1.698,-1.6913,-1.691,-1.6908,-1.6906,-1.6885,-1.6886,-1.6887,-1.6939,0,0,-1.6891,-1.6891,0,0,0,0,0,0,0,0,-1.6986,-1.6986,-1.6972,-1.6969,-1.6965,-1.6947,-1.6968,-1.6966,-1.6913,-1.6932,-1.6907,-1.6905,-1.6908,-1.6907,-1.6908,-1.6938,-1.6937,-1.6891,-1.6892,-1.6892,-1.6893,0,0,0,0,0,0,0,-1.6986,-1.6987,-1.6995,-1.6972,-1.6968,-1.6952,-1.6948,-1.6967,-1.6933,-1.693,-1.6925,-1.6923,-1.6905,-1.6907,-1.6907,-1.6937,-1.6891,-1.6892,-1.6893,-1.6893,-1.701,-1.7012,0,0,0,0,0,0,-1.6992,-1.6987,-1.6995,-1.6994,-1.697,-1.6954,-1.695,-1.6955,-1.6932,-1.6927,-1.6925,-1.692,-1.6906,-1.6905,-1.6906,-1.6966,-1.6892,-1.6893,-1.6894,-1.7008,-1.7011,-1.7013,0,0,0,0,0,0,-1.6992,-1.6993,-1.6996,-1.6989,-1.6988,-1.6956,-1.6962,-1.6956,-1.6957,-1.6928,-1.6922,-1.6932,-1.6904,-1.6904,-1.6932,-1.6964,-1.6894,-1.6895,-1.7005,-1.7009,-1.7012,-1.7086,0,0,0,0,0,0,-1.6992,-1.6994,-1.7013,-1.699,-1.6989,-1.7022,-1.6964,-1.6957,-1.6959,-1.6952,-1.6934,-1.6929,-1.6902,-1.693,-1.6933,-1.6964,-1.6896,-1.7002,-1.7007,-1.7011,-1.708,-1.7092,-1.7101,0,0,0,0,0,-1.6992,-1.7035,-1.7014,-1.7015,-1.7012,-1.7024,-1.7024,-1.6992,-1.6962,-1.6981,-1.6963,-1.6929,-1.696,-1.6934,-1.6936,-1.6968,-1.7,-1.7005,-1.7011,-1.7076,-1.7089,-1.7101,0,0,0,0,0,0,-1.7063,-1.7031,-1.7008,-1.7045,-1.7038,-1.7013,-1.7036,-1.7007,-1.7009,-1.7003,-1.6963,-1.696,-1.6993,-1.6983,-1.6955,-1.7018,-1.6974,-1.698,-1.7023,-1.7036,-1.7046,-1.7048,-1.6897,0,0,0,0,0,-1.7082,-1.7094,-1.7066,-1.7102,-1.7099,-1.7069,-1.7073,-1.7049,-1.704,-1.7037,-1.7021,-1.7014,-1.7022,-1.7028,-1.7034,-1.7078,-1.7074,-1.7102,-1.7112,-1.7121,-1.7127,-1.715,-1.7163,-1.7031,-1.7031,-1.7031,0,0,-1.7124,-1.7108,-1.7118,-1.7116,-1.7107,-1.7121,-1.7066,-1.7083,-1.7093,-1.7039,-1.7064,-1.7053,-1.7043,-1.7079,-1.7094,-1.7072,-1.7162,-1.7128,-1.7135,-1.7136,-1.7157,-1.717,-1.7181,-1.7035,-1.7034,-1.7033,0,0,-1.7206,-1.7195,-1.7224,-1.7216,-1.7204,-1.7183,-1.719,-1.717,-1.716,-1.7184,-1.7144,-1.7156,-1.717,-1.7165,-1.7164,-1.7245,-1.7215,-1.7248,-1.7302,-1.7326,-1.7336,-1.7345,-1.7375,-1.7386,-1.7254,-1.7254,-1.7254,0,-1.7259,-1.7278,-1.7242,-1.7262,-1.7262,-1.7213,-1.7242,-1.7237,-1.7228,-1.723,-1.7204,-1.7222,-1.7212,-1.7247,-1.7266,-1.7267,-1.7274,-1.725,-1.7337,-1.7346,-1.7354,-1.7382,-1.7393,-1.7258,-1.7258,-1.7257,-1.7257,0,-1.7344,-1.7358,-1.7382,-1.7374,-1.7377,-1.7402,-1.737,-1.7378,-1.7354,-1.7336,-1.7362,-1.7348,-1.735,-1.7356,-1.7333,-1.7388,-1.7375,-1.7344,-1.73,-1.7371,-1.7397,-1.7407,-1.7264,-1.7263,-1.7262,-1.7261,0,0,-1.7471,-1.7443,-1.7452,-1.7448,-1.7431,-1.7441,-1.7464,-1.7465,-1.7473,-1.7468,-1.7487,-1.75,-1.7472,-1.7471,-1.7447,-1.7467,-1.7533,-1.7434,-1.7433,-1.7453,-1.7594,-1.7618,-1.763,-1.7512,-1.7514,-1.7516,-1.7595,0,-1.755,-1.7586,-1.7554,-1.7596,-1.7609,-1.7563,-1.7582,-1.7574,-1.7558,-1.7567,-1.7549,-1.756,-1.7521,-1.7521,-1.7539,-1.7521,-1.7561,-1.7515,-1.753,-1.7531,-1.7534,-1.7644,-1.7669,-1.7744,-1.7605,-1.7606,-1.7607,0,-1.7646,-1.7645,-1.7689,-1.7669,-1.7673,-1.7692,-1.7691,-1.77,-1.769,-1.7677,-1.7676,-1.7646,-1.7668,-1.7624,-1.7653,-1.7623,-1.7627,-1.7619,-1.7621,-1.7622,-1.7574,-1.7648,-1.7767,-1.7779,-1.7623,-1.7621,-1.762,0,-1.7735,-1.7745,-1.7772,-1.777,-1.7748,-1.7762,-1.7753,-1.7741,-1.7745,-1.7744,-1.7746,-1.7749,-1.775,-1.7753,-1.7725,-1.7695,-1.7758,-1.7712,-1.7749,-1.775,-1.7765,-1.7764,-1.7887,-1.7766,-1.7766,-1.7766,-1.7766,0,-1.7827,-1.7855,-1.7812,-1.7829,-1.786,-1.7824,-1.7856,-1.7842,-1.7832,-1.7846,-1.7806,-1.7821,-1.7782,-1.7793,-1.7771,-1.7799,-1.78,-1.7791,-1.7785,-1.7795,-1.7796,-1.7797,-1.7792,-1.7769,-1.7768,-1.7768,-1.7767,0,-1.7932,-1.7904,-1.7931,-1.7907,-1.7902,-1.7926,-1.7906,-1.7922,-1.7903,-1.7921,-1.7923,-1.7894,-1.7905,-1.7877,-1.7883,-1.7868,-1.7909,-1.7894,-1.7912,-1.7908,-1.7947,-1.7944,-1.8075,-1.8091,-1.796,-1.7961,-1.7962,0,-1.7992,-1.8013,-1.7992,-1.7998,-1.7992,-1.8002,-1.8005,-1.797,-1.7975,-1.7966,-1.7983,-1.799,-1.7993,-1.8012,-1.7992,-1.7997,-1.7982,-1.8028,-1.7983,-1.7992,-1.7984,-1.7983,-1.7985,-1.8038,-1.8039,-1.804,-1.8042,0,-1.8103,-1.8088,-1.8093,-1.8094,-1.8099,-1.8098,-1.8095,-1.8102,-1.8065,-1.8073,-1.8082,-1.8085,-1.8091,-1.8099,-1.8099,-1.8091,-1.8061,-1.8056,-1.8065,-1.8076,-1.8086,-1.8081,-1.7938,-1.8053,-1.8052,-1.8051,-1.8051,-1.805,-1.8188,-1.8204,-1.8192,-1.82,-1.8193,-1.8191,-1.8204,-1.8187,-1.8194,-1.8196,-1.8175,-1.819,-1.818,-1.8177,-1.8172,-1.8183,-1.8162,-1.8175,-1.8179,-1.8182,-1.8189,-1.8083,-1.8183,-1.8183,-1.8182,-1.8182,-1.8182,0,-1.8297,-1.8287,-1.8294,-1.829,-1.8296,-1.8266,-1.8261,-1.8268,-1.8281,-1.8274,-1.8279,-1.829,-1.8298,-1.8278,-1.8283,-1.8296,-1.8282,-1.8298,-1.8297,-1.8296,-1.8207,-1.8199,-1.8309,-1.8309,-1.8309,-1.8309,-1.8309,-1.8309,-1.8355,-1.8381,-1.8365,-1.8388,-1.8378,-1.8391,-1.8391,-1.8389,-1.8383,-1.8398,-1.8403,-1.839,-1.8379,-1.8382,-1.8388,-1.8382,-1.8386,-1.8407,-1.8397,-1.8314,-1.8302,-1.829,-1.8283,-1.8408,-1.8408,-1.8484,-1.8485,-1.8486]},{"header":{"parameterUnit":"m.s-1","parameterCategory":1,"la1":30.2991,"la2":30.254,"lo1":-89.0895,"lo2":-89.0444,"dy":0.0017,"dx":0.0017,"nx":28,"ny":28,"refTime":"2024-08-10T03:00:00:Z","depth":0,"parameterNumber":3,"parameterNumberName":"V-component_of_WINDS"},"data":[0,0,0,0,0,0,0,0,0,0,0,0,0,0,0,0,0,0,0,0,0,0,0,0,0,0,0,0,0,0,0,0,0,0,0,0,0,0,0,0,0,0,0,0,0,0,0,0,0,0,0,0,0,0,0,0,0,0,-1.4738,-1.4738,0,-1.477,-1.4771,-1.4771,-1.4754,-1.4754,-1.4753,-1.4752,-1.4783,-1.4785,-1.4787,0,0,0,0,0,0,0,0,0,0,0,0,0,-1.466,-1.4661,-1.4738,-1.4738,-1.4739,-1.477,-1.4771,-1.4771,-1.4755,-1.4754,-1.4752,-1.4752,-1.4783,-1.4785,-1.4787,0,0,0,0,0,0,0,0,0,0,0,0,0,-1.4693,-1.4662,-1.4738,-1.4734,-1.4734,-1.477,-1.4771,-1.4771,-1.4755,-1.4754,-1.4752,-1.4751,-1.4782,-1.4785,-1.4787,-1.4828,0,0,-1.4795,-1.4796,0,0,0,0,0,0,0,0,-1.4691,-1.4696,-1.4734,-1.4735,-1.4735,-1.4757,-1.4755,-1.479,-1.4755,-1.4747,-1.4752,-1.475,-1.4776,-1.4779,-1.4787,-1.4829,-1.4831,-1.4795,-1.4796,-1.4797,-1.4798,0,0,0,0,0,0,0,-1.4689,-1.4694,-1.4751,-1.4735,-1.4735,-1.473,-1.4734,-1.4761,-1.4768,-1.4748,-1.4746,-1.4751,-1.4775,-1.4785,-1.4788,-1.4831,-1.4795,-1.4797,-1.4798,-1.4799,-1.4908,-1.491,0,0,0,0,0,0,-1.4687,-1.4693,-1.475,-1.4752,-1.4709,-1.4733,-1.4737,-1.4751,-1.4768,-1.4769,-1.4752,-1.475,-1.4782,-1.4785,-1.4789,-1.4838,-1.4797,-1.48,-1.4801,-1.4907,-1.4909,-1.491,0,0,0,0,0,0,-1.4685,-1.4692,-1.4748,-1.4722,-1.4729,-1.4736,-1.4752,-1.4752,-1.4762,-1.4771,-1.4772,-1.476,-1.4781,-1.4786,-1.4819,-1.4839,-1.4801,-1.4803,-1.4905,-1.4907,-1.4909,-1.4937,0,0,0,0,0,0,-1.4683,-1.4692,-1.4708,-1.4722,-1.473,-1.4778,-1.4753,-1.4754,-1.4767,-1.4764,-1.4779,-1.4781,-1.478,-1.4815,-1.4821,-1.4842,-1.4805,-1.4903,-1.4906,-1.4909,-1.4934,-1.494,-1.4945,0,0,0,0,0,-1.4681,-1.4714,-1.4709,-1.4716,-1.4751,-1.4779,-1.4784,-1.4783,-1.4768,-1.4784,-1.479,-1.478,-1.4836,-1.4818,-1.4825,-1.4847,-1.4902,-1.4905,-1.4909,-1.4932,-1.4939,-1.4944,0,0,0,0,0,0,-1.4701,-1.4716,-1.471,-1.475,-1.4763,-1.4776,-1.4797,-1.479,-1.4808,-1.4805,-1.4802,-1.4806,-1.484,-1.4847,-1.4827,-1.4887,-1.4867,-1.4871,-1.4882,-1.4889,-1.4894,-1.4892,-1.4807,0,0,0,0,0,-1.471,-1.4733,-1.4744,-1.4778,-1.4785,-1.479,-1.4802,-1.48,-1.4814,-1.482,-1.4828,-1.4841,-1.4862,-1.4875,-1.4895,-1.4935,-1.4938,-1.4953,-1.4958,-1.4962,-1.4967,-1.4989,-1.4996,-1.4921,-1.4921,-1.4921,0,0,-1.473,-1.474,-1.4755,-1.4782,-1.4793,-1.4816,-1.4795,-1.482,-1.4837,-1.4824,-1.4856,-1.4862,-1.4876,-1.4913,-1.493,-1.492,-1.4988,-1.4966,-1.497,-1.4972,-1.4993,-1.5,-1.5006,-1.4923,-1.4922,-1.4922,0,0,-1.4777,-1.4787,-1.4816,-1.4827,-1.4844,-1.4846,-1.4853,-1.4867,-1.4871,-1.4903,-1.4894,-1.4913,-1.4949,-1.496,-1.497,-1.5021,-1.5012,-1.5027,-1.5054,-1.5075,-1.5081,-1.5086,-1.5105,-1.5112,-1.5031,-1.5031,-1.5031,0,-1.4798,-1.4834,-1.4832,-1.4858,-1.4871,-1.486,-1.4889,-1.49,-1.4921,-1.493,-1.4918,-1.4962,-1.4971,-1.5011,-1.5023,-1.5032,-1.5039,-1.5026,-1.5081,-1.5086,-1.5091,-1.5108,-1.5115,-1.5033,-1.5032,-1.5032,-1.5032,0,-1.486,-1.4884,-1.4905,-1.4928,-1.4942,-1.497,-1.4972,-1.4987,-1.4983,-1.4987,-1.502,-1.503,-1.5052,-1.506,-1.5057,-1.5099,-1.5093,-1.5081,-1.506,-1.51,-1.5116,-1.5123,-1.5035,-1.5035,-1.5034,-1.5034,0,0,-1.4921,-1.4942,-1.495,-1.496,-1.4977,-1.4995,-1.5022,-1.5044,-1.5057,-1.5071,-1.5094,-1.5124,-1.5113,-1.5125,-1.5122,-1.5141,-1.5181,-1.5127,-1.5127,-1.5137,-1.5228,-1.5238,-1.5246,-1.5175,-1.5176,-1.5177,-1.5227,0,-1.497,-1.5018,-1.5018,-1.5062,-1.5084,-1.5074,-1.5097,-1.511,-1.5114,-1.5133,-1.5137,-1.5159,-1.5142,-1.5149,-1.5167,-1.5172,-1.5199,-1.5168,-1.5196,-1.5197,-1.5194,-1.5254,-1.5265,-1.5311,-1.5234,-1.5235,-1.5236,0,-1.5034,-1.5052,-1.5099,-1.5112,-1.5122,-1.5143,-1.5162,-1.5181,-1.5195,-1.5196,-1.5209,-1.5204,-1.523,-1.5208,-1.5245,-1.5224,-1.5235,-1.5239,-1.5241,-1.5244,-1.5219,-1.526,-1.5326,-1.5334,-1.5246,-1.5245,-1.5244,0,-1.5075,-1.5111,-1.5143,-1.5152,-1.5169,-1.5184,-1.5191,-1.5204,-1.5217,-1.5233,-1.5242,-1.5261,-1.5272,-1.5286,-1.5286,-1.527,-1.5323,-1.5301,-1.5326,-1.5326,-1.5338,-1.5338,-1.5408,-1.5344,-1.5344,-1.5344,-1.5343,0,-1.513,-1.516,-1.5162,-1.5183,-1.5215,-1.5213,-1.5245,-1.525,-1.5262,-1.5282,-1.5274,-1.5293,-1.5292,-1.5311,-1.5311,-1.5341,-1.5346,-1.5348,-1.5348,-1.5349,-1.5349,-1.5357,-1.5354,-1.5345,-1.5345,-1.5345,-1.5344,0,-1.5182,-1.5185,-1.5221,-1.5233,-1.5237,-1.526,-1.5271,-1.529,-1.5293,-1.5319,-1.5325,-1.533,-1.5353,-1.5354,-1.5379,-1.5379,-1.5416,-1.5412,-1.5412,-1.5412,-1.5436,-1.5434,-1.5515,-1.5526,-1.5454,-1.5455,-1.5455,0,-1.5218,-1.524,-1.5256,-1.5269,-1.5278,-1.53,-1.5313,-1.5312,-1.5326,-1.5343,-1.536,-1.5382,-1.5399,-1.5435,-1.5441,-1.546,-1.5457,-1.5484,-1.546,-1.5461,-1.5458,-1.5457,-1.5459,-1.5489,-1.5489,-1.549,-1.5491,0,-1.5281,-1.5281,-1.5301,-1.5322,-1.5338,-1.5354,-1.5368,-1.538,-1.538,-1.5396,-1.5419,-1.5433,-1.5459,-1.5481,-1.55,-1.5507,-1.5499,-1.5498,-1.5505,-1.5507,-1.5507,-1.5508,-1.5426,-1.5496,-1.5496,-1.5495,-1.5495,-1.5495,-1.5326,-1.5346,-1.536,-1.5382,-1.5393,-1.5407,-1.5426,-1.5431,-1.5451,-1.5473,-1.547,-1.5496,-1.5509,-1.5533,-1.5542,-1.5562,-1.5552,-1.5562,-1.5565,-1.5567,-1.557,-1.5503,-1.5565,-1.5565,-1.5564,-1.5564,-1.5564,0,-1.5389,-1.5398,-1.5418,-1.544,-1.5457,-1.5448,-1.5464,-1.5479,-1.5502,-1.5515,-1.5532,-1.5559,-1.558,-1.5586,-1.5607,-1.5621,-1.5618,-1.5627,-1.5626,-1.5628,-1.5577,-1.557,-1.5629,-1.5629,-1.5629,-1.5629,-1.5629,-1.5629,-1.5425,-1.5457,-1.5459,-1.5497,-1.5505,-1.5531,-1.554,-1.5553,-1.5563,-1.5594,-1.5611,-1.5616,-1.5626,-1.5647,-1.5665,-1.5666,-1.5675,-1.5685,-1.5685,-1.5638,-1.5631,-1.5625,-1.5618,-1.5686,-1.5687,-1.5734,-1.5734,-1.5735]}]]